sat.trackr.live / text

‹ back to catalog

STARLINK-5812

NORAD 55774 · 2023-028AK

PAYLOAD ACTIVE UNKNOWN

§ Identity

Operator
Country
US
Launch date
2023-03-03
Launch site
AFWTR
Launch vehicle
Mass (kg)
RCS (m²)

Purposes: comms

External: N2YO · Heavens-Above · Gunter

§ Orbital elements

Epoch: 2026-05-25T03:01:42.683808Z

Period
96.11 min
Inclination
70.0004°
Eccentricity
0.0002644
Mean motion
14.98333497 rev/d
Perigee alt
570.2 km
Apogee alt
573.9 km
Semi-major
6,950.2 km
B*
6.4357e-5
RAAN
31.6912°
Arg perigee
269.4132°
Mean anomaly
90.6724°
Rev number
17,798

§ Raw data

STARLINK-58121 55774U 23028AK  26145.12618847  .00000675  00000+0  64357-4 0  99942 55774  70.0004  31.6912 0002644 269.4132  90.6724 14.98333497177987

JSON: /api/v1/satellites/55774 · /tle

For live sub-satellite position, see the globe view (requires WebGL).

§ Visibility from observer

Set your observer location to see the next 7 days of passes ≥ 10°. The values pass through the URL so the page stays shareable.

No JS? Fill the form by hand. The geolocation button needs JavaScript.